Regional Weather Roundup
Issued by NWS Portland, ME

Current Version | Previous Version | Text Only | Print | Product List | Glossary Off
Versions: 1 2 3 4 5 6 7 8 9 10 11 12 13 14 15 16 17 18 19 20 21 22 23 24 25 26 27 28 29 30 31 32 33 34 35 36 37 38 39 40 41 42 43 44 45 46 47 48 49 50

982
ASUS41 KGYX 131305
RWRGYX
WEATHER ROUNDUP FOR MAINE AND NEW HAMPSHIRE
NATIONAL WEATHER SERVICE GRAY ME
800 AM EST SAT FEB 13 2016

MEZ002-005-006-010-012-015-018-020-021-024-026-027-029-131400-
MAINE

CITY           SKY/WX    TMP DP  RH WIND       PRES   REMARKS
PORTLAND       PTSUNNY    4  -1  80 W6        29.79S
SANFORD        CLOUDY     5   0  78 SW5       29.78S
BAR HARBOR     CLOUDY    18  10  73 NE12G18   29.75F WCI   5
WISCASSET      PTSUNNY    6   2  83 CALM      29.78F
ROCKLAND       SNOW      18  15  88 VRB6      29.76S VSB 1/2
FRYEBURG       CLOUDY     4  -1  80 CALM      29.78R
LEWISTONAUBURN CLOUDY     1  -8  66 CALM      29.76S
AUGUSTA        PTSUNNY    0  -5  79 N12       29.77S WCI -17
WATERVILLE     CLOUDY     1  -4  79 N7        29.75S
BANGOR         CLOUDY     3  -4  72 N8        29.80S
GREENVILLE       N/A      5  -2  72 CALM      29.66S
MILLINOCKET    CLOUDY    -5 -12  72 CALM      29.82F
HOULTON        SUNNY    -16 -22  74 NE5       29.81S
PRESQUE ISLE   SUNNY    -14 -19  79 CALM      29.83S
FRENCHVILLE    MOSUNNY   -4 -11  72 E7        29.75F
CARIBOU        SUNNY     -9 -14  78 N5        29.81S
$$

NHZ002-005-008-009-011-012-014-131400-
NEW HAMPSHIRE

CITY           SKY/WX    TMP DP  RH WIND       PRES   REMARKS
PORTSMOUTH     CLOUDY    13   6  74 W7        29.79S
ROCHESTER      CLOUDY     7   0  73 NW5       29.77S
NASHUA         CLOUDY    10   7  85 CALM      29.82R
MANCHESTER     CLOUDY    11   6  81 CALM      29.80R
CONCORD        MOSUNNY    7   1  76 CALM      29.80R
LACONIA        PTSUNNY   10   3  72 W3        29.79R
PLYMOUTH       FAIR       8   6  89 CALM      29.80R
BERLIN         CLOUDY     5   0  79 CALM      29.73R HAZE
WHITEFIELD     FLURRIES  11   4  73 NW9       29.76R
JAFFREY        MOSUNNY   13   4  67 W10       29.76R WCI   0
KEENE          SUNNY      7  -2  66 CALM      29.82R
LEBANON        PTSUNNY    7   2  80 NE3       29.82R
MT WASHINGTON  NOT AVBL
$$

VTZ005-007-008-131400-
VERMONT

CITY           SKY/WX    TMP DP  RH WIND       PRES   REMARKS
ST JOHNSBURY     N/A      8  -2  63 MISG      29.82R
MONTPELIER     LGT SNOW   5  -1  76 NW10      29.84R WCI -10
BURLINGTON     MOCLDY     2  -8  63 N15       29.96R WCI -17
$$

MAZ007-012-024-CTZ003-RIZ002-NYZ038-NYZ072-131400-
SOUTHERN NEW ENGLAND AND NY

CITY           SKY/WX    TMP DP  RH WIND       PRES   REMARKS
BOSTON         PTSUNNY   20   8  60 NW8       29.81S
WORCESTER      CLOUDY    12   5  73 W12       29.76R WCI  -2
NANTUCKET      CLOUDY    24  12  60 NW13      29.78S WCI  12
PROVIDENCE     FLURRIES  18  11  74 NW10      29.84R WCI   6
HARTFORD       PTSUNNY   13   6  74 NW6       29.87R
ALBANY         PTCLDY    13   0  56 W14G21    29.95R WCI  -2
NEW YORK CITY  MOSUNNY   23   6  48 NW23G37   29.97R WCI   7
$$

ANZ081-ANZ082-ANZ150-NHZ014-MEZ023>029-131400-
COASTAL MARINE OBSERVATIONS

STATION/POSITION TIME  TEMP    WIND        PRES    WAVE
                       AIR SEA DIR/SP/G            HT/PER
                 (UTC) (F)     (DEG/KT/KT) (MB)    (FT/S)
MOUNT DESERT ROC 1200   24      70/ 23/ 27 1006.7F
MATINICUS ROCK   1200          100/ 14/ 16 1006.3F
ISLE OF SHOALS   1200   19     280/ 15/ 17 1008.1S
JEFFREYS LEDGE   1204      43                N/A     2/10
CASHES LEDGE BUO 1150   24 42  320/ 16/ 19 1007.0    3/ 8
GEORGES BANK BUO 1150   32 44              1002.2    6/10
$$

.............KEY..............
   WCI - WIND CHILL
   TC  - TEMPERATURE IN CELSIUS
   VSB - VISIBILITY IN MILES
   HX  - HEAT INDEX
   FAIR- INDICATES FEW OR NO CLOUDS BELOW 12,000 FT, WITH NO
         SIGNIFICANT WEATHER AND/OR OBSTRUCTIONS TO VISIBILITY.






USA.gov is the U.S. government's official web portal to all federal, state and local government web resources and services.